STARLINK-35343, 67334

Orbit data source: Space-Track

STARLINK-35343, 67334 is a payload satellite owned by SpaceX/Seattle (US) in LEO that was launched on Fri, 09 Jan 2026 UTC via an FALCON 9 launch vehicle from the Air Force Eastern Test Range (AFETR). Payload-class satellites include a variety of spacecraft equipped with specific instruments for various scientific and technological missions. These include communications satellites like Starlink; space stations such as the ISS; scientific satellites like the Hubble; Earth observation satellites from companies like Planet Labs, Umbra, and HawkEye 360; GPS; miniature CubeSats for education and research; and military/defense satellites.

Loading next visibility...
Identifier
67334, 2026-003A
Orbit
LEO
Country
Flag of USUS
Related business
Manufacturer
SpaceX/Seattle
Mission
Operational Commercial Communications
Bus & Motor
STARLINK V2MO, Unknown motor
Mass
575 kg wet, ~530 kg dry
Launch date (UTC)
2026-01-09 (5 months ago)
Launch vehicle
FALCON 9
Launch site
Air Force Eastern Test Range (AFETR)
Object type
Payload
Rocket body
Debris
Shape & HBR
Box + 2 Pan, 17.7 m
Radar Cross Section
36.964 m², Large (>1 m²)

Expand to show TLE details & history
Last TLE update: 2 days ago

TLE from 2 days ago
0 STARLINK-35343
1 67334U 26003A   26169.97515009  .00019835  00000-0  72808-3 0  9998
2 67334  43.0023  15.1123 0001888 273.1868  86.8767 15.27592269 24310
Epoch: 2026-06-18T23:24Z
TLE epoch observation values (Epoch: 2026-06-18T23:24:12.967Z)
Latitude
-0.00008°
Longitude
116.84742°
Altitude
482.718 km
Speed
7.626 km/s
True Right ascension
01h 00m 26s
True Declination
0° 00' 00"
Sunlit
Object was in daylight at epoch
Visualization orbit readout
Latitude
Unknown
Longitude
Unknown
Altitude
Unknown
Speed
Unknown
Apparent Right ascension
Unknown
Apparent Declination
Unknown
Sunlit
N/A
Visualization observer readout
Local Sidereal Time
07:19:52
Azimuth
Unknown
Elevation
Unknown
Doppler factor
Unknown
Orbital elements
Apogee altitude
486.253 km
Perigee altitude
483.661 km
Semi-major axis
6,863.094 km
Eccentricity
0.00019
Inclination
43.0023°
RAAN
15.1123°
Arg. of periapsis
273.1868°
True anomaly
86.8983°
Mean anomaly
86.8767°
Eccentric anomaly
86.8875°
Mean motion
3.81736 °/min
Orbital period
94.31 mins
BSTAR
0.00072808
Loading maneuver chart data...
Computing Atmospheric mass density...
Loading historical data...
Loading historical data...
Loading historical data...
Loading historical data...
Loading historical data...
Loading historical data...
Loading historical data...

Documentation

Showing up to 5 results
|